Wind_Speed
21 20 18 18 17 16 16 16 17 16 14 12 11 11 10 9 9 8 7 7 6 5 5 5 6 6 6 6 6 6 6 5 6 6 6 6 6 7 8 9 10 10 10 10 12 14 12 13 13
21 21 19 19 18 18 18 18 18 17 16 14 12 12 11 10 9 8 8 7 6 5 5 6 6 6 7 7 7 6 6 6 7 6 6 6 6 8 9 9 9 9 10 11 13 14 13 13 12
20 21 20 19 18 19 19 19 19 18 16 15 14 13 12 10 9 9 8 7 6 6 6 7 7 7 7 7 7 7 7 6 6 6 6 7 7 8 8 8 8 9 10 11 12 12 11 11 10
19 21 21 19 18 19 19 19 20 19 18 16 15 14 12 11 10 10 9 8 7 6 7 7 7 7 7 7 7 7 7 7 7 7 6 7 7 8 8 8 8 9 10 10 10 10 11 11 11
20 21 21 20 20 19 20 20 20 20 18 16 15 14 13 12 11 10 9 8 7 7 8 8 8 8 7 7 7 7 8 7 7 7 7 7 7 7 7 7 9 10 11 11 10 10 10 10 10
21 21 21 21 21 20 20 20 21 19 18 17 15 15 14 12 11 11 10 9 8 8 8 8 8 8 8 7 8 7 7 8 8 8 8 7 7 7 7 8 9 10 10 10 10 10 9 8 8
20 20 21 21 22 21 20 20 20 19 18 17 16 15 14 13 12 11 11 10 9 8 8 8 8 8 8 8 8 8 7 7 8 8 8 7 8 8 8 8 9 9 8 8 9 9 8 7 7
19 19 21 22 22 21 20 20 20 19 18 17 16 16 15 13 12 12 12 11 10 10 9 8 8 8 9 8 8 8 8 8 8 8 8 8 8 8 8 8 8 9 8 8 8 8 7 7 7
18 19 20 21 21 21 20 20 19 19 18 17 17 16 15 14 13 12 12 12 11 10 9 9 8 9 9 8 9 9 8 8 8 8 8 8 9 9 9 9 8 7 7 7 8 7 7 7 6
17 19 19 20 20 20 20 20 19 19 19 17 17 16 15 14 13 13 13 13 12 11 10 9 9 9 9 9 9 9 9 8 8 8 8 9 9 8 8 9 8 8 7 7 7 7 6 6 5
16 17 18 19 20 20 20 20 20 19 19 18 16 16 15 14 14 13 13 13 13 12 11 10 9 9 9 8 8 8 8 8 8 8 8 8 8 8 8 8 7 7 7 7 7 6 5 5 4
15 15 16 17 18 19 19 19 20 20 19 18 16 16 16 15 14 13 13 12 13 13 12 12 10 9 9 9 9 8 8 7 7 7 7 8 8 7 7 7 7 7 6 6 5 5 4 4 3
12 14 14 15 16 17 18 19 19 19 19 17 16 15 16 15 14 14 13 13 12 12 12 11 11 10 9 9 8 8 7 7 7 7 7 7 7 7 7 7 7 6 6 5 4 4 4 3 2
10 11 12 13 15 15 17 17 18 18 18 17 16 15 15 15 15 14 14 13 12 12 12 11 10 10 9 8 8 8 7 7 7 6 6 6 6 6 6 6 5 5 5 4 4 3 3 3 3
7 9 10 12 13 14 15 16 17 17 18 17 16 16 16 16 15 15 14 14 13 12 12 11 11 10 10 9 8 8 8 7 8 7 7 6 6 5 5 5 4 4 3 3 3 2 2 3 3
5 7 9 10 12 12 12 14 14 15 16 17 16 16 16 16 15 15 14 14 13 12 12 11 11 11 10 10 9 8 8 8 7 7 6 6 5 5 5 4 3 3 2 2 2 2 1 2 2
2 4 6 8 9 10 11 11 12 13 14 15 15 15 15 15 15 14 14 14 13 12 12 11 10 10 10 10 10 9 8 8 7 7 6 6 5 5 4 3 2 2 2 1 1 1 1 2 2
2 1 3 5 7 8 9 9 10 11 12 13 13 14 14 14 14 14 13 13 13 12 12 11 10 10 10 10 10 9 9 8 8 7 7 6 5 4 3 2 2 1 1 1 0 1 1 2 3
5 3 1 2 4 5 7 8 8 9 10 11 12 12 12 12 12 12 12 12 12 12 11 11 11 10 10 10 9 9 9 8 8 7 7 6 5 4 4 2 1 1 0 1 1 2 3 2 3
8 6 5 4 4 4 6 7 7 8 8 9 10 10 10 10 11 11 11 11 12 11 11 11 10 10 11 10 10 10 9 8 8 8 7 6 5 4 3 3 2 1 1 1 2 2 2 3 3
10 9 8 7 6 5 5 6 8 8 8 8 8 9 9 9 9 10 9 10 10 10 10 10 10 10 11 11 11 10 10 10 9 8 8 7 6 5 3 2 2 1 1 2 2 3 3 4 4
12 11 11 9 8 7 7 7 7 9 7 7 7 7 7 7 7 8 8 8 8 9 9 9 9 10 10 10 11 10 10 10 9 8 8 8 7 6 5 4 3 3 2 3 3 3 4 5 5
15 13 12 11 11 10 9 9 8 7 6 6 6 6 6 5 5 7 7 7 7 7 8 9 9 9 9 10 10 10 9 9 9 8 8 7 7 7 6 5 5 5 3 3 3 4 5 6 7
17 15 15 14 14 12 11 10 8 6 6 6 6 6 5 4 4 5 6 6 6 7 7 7 8 8 8 8 9 8 9 9 9 9 8 7 7 6 6 6 6 6 5 5 5 5 6 7 7
19 18 17 16 15 13 12 11 7 6 6 6 6 5 5 4 3 3 4 5 5 5 5 6 6 6 6 7 7 7 7 7 7 8 7 7 7 7 6 6 6 6 6 6 6 6 6 6 7
20 19 18 18 16 15 15 14 11 9 8 7 7 6 6 5 4 3 3 2 3 3 3 3 4 4 4 5 5 5 5 5 6 6 6 6 6 6 6 6 7 7 7 7 7 7 7 7 8
23 21 20 19 18 18 17 15 14 12 11 9 8 8 7 7 6 5 4 3 2 1 2 2 2 2 2 2 2 2 3 3 4 4 5 5 6 6 6 7 7 8 8 8 8 8 8 8 9
24 23 21 21 20 20 19 17 16 14 11 10 8 8 8 8 8 7 7 5 4 3 2 2 2 2 2 1 1 2 2 3 5 4 5 5 6 6 7 8 8 8 8 9 9 9 9 9 10
26 25 23 22 21 21 20 18 15 14 13 11 9 9 9 9 9 8 8 7 6 5 5 5 4 4 3 3 3 3 4 4 4 5 6 7 7 8 8 9 9 9 9 10 10 11 11 12 12
28 27 25 24 22 22 21 18 16 15 13 12 11 10 10 11 10 10 10 8 8 7 7 7 7 6 5 5 5 5 6 6 5 6 7 8 8 9 10 10 10 11 11 12 13 13 14 14 15
Wind_Direction
57 57 58 58 58 57 58 57 55 51 51 52 54 57 56 59 61 62 61 61 67 70 83 83 82 85 84 82 83 89 92 92 86 95 102 107 110 117 119 132 133 131 139 146 144 144 143 140 140
58 58 59 58 58 58 58 57 55 52 51 50 53 55 55 60 63 65 62 63 65 72 81 83 80 82 83 84 85 91 90 83 81 88 96 98 111 123 124 126 134 135 138 141 143 143 140 135 136
57 57 56 56 58 58 57 57 56 54 51 50 52 55 56 59 62 63 62 64 71 74 82 82 80 81 84 85 85 90 87 85 85 89 94 94 103 117 120 123 130 134 134 134 139 141 137 136 135
58 57 55 55 56 57 58 58 57 54 51 51 55 57 56 56 60 64 64 67 74 78 84 84 83 81 83 84 89 94 90 88 91 95 98 102 104 111 119 127 131 132 133 133 135 138 139 140 139
57 56 55 57 57 57 58 59 57 53 51 52 56 59 58 56 57 61 64 67 71 76 82 85 83 82 85 88 89 89 92 92 93 98 101 104 105 109 113 121 133 136 138 137 133 133 136 143 138
57 56 57 56 57 57 56 56 55 52 50 50 54 59 58 54 55 59 63 66 70 73 79 84 83 83 88 89 88 89 94 95 96 98 104 105 102 105 111 119 128 134 137 137 134 133 137 138 137
57 55 55 55 55 56 55 55 54 51 48 47 50 56 58 56 56 59 62 65 67 69 77 85 84 83 87 87 92 91 93 95 96 100 104 103 103 108 114 123 128 128 130 133 137 138 139 139 139
57 55 55 55 54 53 54 55 53 50 49 47 48 51 56 57 58 59 60 62 65 68 74 80 81 85 91 88 91 95 95 96 102 104 100 102 107 113 121 126 129 126 128 131 133 132 133 139 141
62 58 56 55 53 51 51 52 52 51 50 50 49 50 52 56 58 59 58 59 62 66 71 76 79 87 94 96 95 95 97 103 108 109 108 109 112 114 125 126 129 131 131 133 135 136 139 143 145
63 59 56 54 54 52 50 50 50 51 51 51 49 48 51 54 56 57 56 57 58 61 68 74 76 82 91 98 100 101 100 107 110 111 112 111 114 118 120 131 136 138 140 142 142 144 146 147 148
65 60 56 54 54 54 52 51 50 50 50 50 51 50 50 53 55 55 55 56 57 59 64 69 73 76 82 94 102 102 105 110 112 113 114 119 122 123 122 124 128 132 135 136 139 149 152 152 152
68 65 58 55 54 53 52 50 48 47 47 49 50 50 50 52 52 52 54 56 57 58 61 67 68 70 76 86 97 102 104 107 112 117 123 127 128 126 124 124 127 129 133 135 135 140 149 153 154
74 72 63 57 54 53 51 48 46 45 45 46 47 49 50 52 51 50 51 54 56 57 58 61 67 70 75 80 90 96 99 107 115 119 121 123 127 126 124 125 125 133 135 135 141 152 156 163 168
83 75 66 60 55 54 52 48 45 44 45 45 48 49 50 52 51 51 51 52 55 58 59 62 65 68 73 79 84 93 100 106 109 111 116 119 123 128 130 130 131 131 137 149 150 160 178 187 194
92 75 65 59 55 53 52 48 44 43 43 45 47 50 52 52 53 53 52 53 55 58 60 64 66 68 72 76 80 87 91 98 102 105 114 118 120 125 134 136 140 139 136 137 152 169 188 190 196
93 76 65 56 52 49 47 45 43 40 40 41 44 47 49 51 52 53 54 54 55 57 59 64 69 71 71 73 77 85 89 91 96 101 108 114 122 130 134 134 140 142 133 132 152 174 193 201 207
110 70 64 55 50 47 43 41 41 38 37 38 41 45 48 49 49 52 55 56 57 56 59 64 70 72 72 74 77 81 84 87 90 96 100 104 114 121 128 134 143 153 156 162 166 184 211 228 226
185 85 57 45 39 38 35 35 33 31 31 33 38 42 45 48 50 50 53 54 56 57 58 63 70 73 73 74 78 81 80 79 80 86 91 96 102 109 119 133 130 121 126 193 243 262 268 263 255
224 242 320 4 15 19 22 18 15 16 22 27 29 34 40 45 49 49 51 51 52 56 59 64 69 73 73 72 75 79 80 78 78 81 84 85 92 100 105 105 123 123 238 305 305 277 278 282 268
232 244 264 279 315 337 2 6 2 2 5 16 22 27 35 38 46 51 50 50 52 55 58 64 69 73 75 73 73 77 77 78 76 76 80 81 85 87 87 86 87 67 286 277 284 274 277 277 282
237 249 261 264 279 295 333 349 354 349 348 0 13 20 31 36 39 48 50 49 53 57 61 65 69 72 75 75 74 73 75 77 77 74 75 76 74 75 75 62 39 1 324 304 298 298 303 299 300
238 250 258 258 264 283 305 324 342 339 333 343 357 7 23 32 34 42 48 49 55 61 65 67 70 71 72 73 73 73 74 73 71 70 68 69 68 65 62 50 29 6 339 322 308 309 306 307 306
238 248 253 256 261 271 286 302 320 323 328 332 342 353 360 16 31 34 41 48 54 64 68 68 69 71 73 72 72 73 73 70 66 65 61 61 61 58 54 45 34 22 0 331 313 306 303 300 300
237 245 251 256 261 266 278 289 305 309 318 327 333 341 343 357 18 23 32 44 56 69 69 67 68 71 73 74 74 72 70 67 64 61 59 56 54 51 46 37 30 20 7 348 325 310 304 300 298
237 242 250 253 256 263 272 279 290 298 302 309 315 322 324 336 354 8 22 40 55 64 66 67 65 64 70 73 73 70 65 61 58 55 52 50 48 46 40 29 20 14 4 354 341 330 324 319 314
239 245 251 255 257 262 269 273 277 285 289 294 298 295 293 299 309 323 344 24 45 55 58 62 59 53 62 72 72 67 63 57 52 51 46 42 39 34 26 17 12 6 358 350 341 331 324 320 319
237 242 250 255 258 259 262 266 270 278 285 283 285 283 281 279 285 294 298 308 332 16 23 7 20 27 37 57 62 55 49 42 39 37 27 27 26 18 11 7 359 352 348 344 340 337 329 323 320
237 239 245 251 253 257 259 261 270 278 285 281 273 271 273 277 277 280 280 282 283 291 295 307 308 324 330 334 326 325 343 10 19 12 9 7 4 360 355 351 349 347 343 338 337 336 331 322 317
238 240 244 248 253 258 261 263 269 272 274 270 267 270 269 272 280 278 274 271 273 276 283 291 292 289 287 295 292 297 309 327 347 356 354 350 344 343 342 341 338 337 334 329 325 322 321 318 314
237 239 241 247 252 257 262 265 267 270 269 265 266 268 270 272 276 275 273 269 275 280 287 292 287 286 286 286 280 290 306 316 323 325 328 331 330 329 328 328 329 330 327 324 319 315 314 313 312
Height
5881 5879 5878 5878 5876 5874 5872 5871 5869 5867 5867 5866 5865 5864 5864 5864 5865 5866 5864 5862 5862 5862 5861 5861 5861 5860 5860 5860 5860 5860 5861 5861 5861 5861 5862 5862 5862 5863 5863 5864 5865 5866 5867 5868 5868 5870 5871 5873 5874
5884 5882 5881 5880 5877 5875 5874 5872 5870 5869 5869 5867 5866 5866 5865 5865 5865 5864 5863 5863 5863 5863 5862 5862 5861 5861 5861 5861 5861 5861 5861 5861 5862 5862 5863 5863 5863 5864 5865 5866 5867 5868 5868 5869 5870 5871 5873 5874 5876
5886 5884 5884 5882 5879 5878 5876 5874 5872 5871 5870 5869 5868 5867 5867 5866 5866 5865 5865 5864 5864 5864 5863 5862 5862 5862 5862 5862 5861 5862 5862 5862 5862 5863 5863 5864 5865 5865 5866 5867 5868 5869 5870 5871 5872 5874 5875 5877 5878
5889 5887 5886 5884 5881 5880 5878 5876 5875 5873 5872 5871 5870 5869 5868 5868 5867 5867 5866 5865 5865 5865 5864 5863 5863 5862 5862 5862 5862 5862 5862 5863 5863 5863 5864 5865 5866 5866 5867 5868 5869 5871 5872 5873 5874 5876 5877 5879 5880
5891 5889 5888 5885 5884 5882 5880 5878 5877 5876 5875 5874 5873 5871 5871 5870 5869 5868 5867 5867 5866 5866 5865 5864 5864 5863 5863 5863 5863 5863 5863 5863 5864 5864 5865 5866 5867 5868 5869 5870 5870 5872 5874 5875 5876 5877 5879 5880 5881
5894 5892 5890 5888 5886 5884 5882 5880 5879 5878 5877 5876 5875 5874 5873 5872 5871 5870 5869 5869 5868 5867 5866 5865 5865 5864 5864 5864 5864 5864 5864 5864 5865 5865 5866 5867 5868 5869 5870 5872 5872 5874 5875 5876 5877 5879 5880 5881 5883
5897 5894 5892 5890 5888 5887 5885 5883 5882 5881 5879 5878 5877 5876 5875 5874 5873 5872 5871 5870 5869 5868 5867 5866 5866 5865 5865 5865 5865 5865 5865 5866 5866 5867 5868 5869 5870 5871 5872 5873 5874 5875 5876 5878 5879 5880 5882 5883 5884
5899 5898 5895 5893 5891 5890 5888 5886 5885 5884 5882 5881 5879 5878 5877 5876 5875 5874 5872 5871 5870 5869 5868 5868 5867 5867 5867 5867 5867 5867 5867 5867 5868 5869 5869 5870 5871 5872 5873 5874 5875 5877 5878 5879 5881 5882 5883 5884 5885
5901 5901 5898 5896 5894 5893 5891 5889 5888 5886 5885 5883 5882 5881 5880 5878 5877 5876 5874 5873 5872 5871 5870 5869 5868 5868 5868 5868 5868 5868 5868 5869 5869 5870 5871 5872 5872 5873 5874 5875 5876 5878 5879 5880 5882 5883 5884 5885 5886
5904 5902 5901 5899 5897 5896 5894 5892 5891 5889 5887 5886 5884 5883 5882 5880 5879 5878 5876 5875 5874 5872 5871 5871 5870 5870 5869 5869 5870 5870 5870 5870 5871 5872 5872 5873 5874 5875 5876 5877 5878 5879 5880 5881 5882 5884 5884 5886 5887
5906 5905 5904 5902 5900 5898 5897 5895 5894 5892 5890 5889 5887 5886 5884 5883 5881 5880 5878 5877 5876 5874 5873 5872 5872 5871 5871 5871 5871 5871 5871 5872 5873 5873 5874 5875 5876 5877 5877 5878 5879 5880 5881 5882 5883 5884 5885 5886 5887
5908 5907 5906 5905 5903 5901 5900 5898 5897 5895 5893 5892 5890 5888 5886 5885 5883 5882 5880 5879 5878 5876 5875 5875 5874 5873 5873 5873 5873 5873 5873 5874 5874 5875 5875 5876 5877 5878 5879 5880 5881 5881 5882 5883 5884 5885 5886 5887 5887
5910 5909 5908 5907 5906 5904 5902 5901 5900 5898 5896 5894 5892 5890 5889 5887 5885 5884 5882 5881 5880 5879 5878 5877 5876 5876 5875 5875 5875 5874 5875 5875 5875 5876 5877 5877 5878 5879 5880 5881 5882 5883 5883 5884 5885 5886 5886 5887 5888
5912 5911 5911 5909 5908 5907 5905 5904 5903 5901 5898 5896 5894 5893 5891 5889 5888 5886 5884 5883 5882 5881 5880 5879 5878 5878 5877 5877 5877 5876 5876 5877 5877 5877 5878 5878 5879 5880 5881 5882 5883 5883 5884 5885 5886 5886 5886 5887 5888
5914 5913 5913 5912 5910 5909 5908 5907 5905 5903 5901 5899 5897 5895 5893 5891 5890 5888 5887 5885 5884 5883 5882 5881 5880 5880 5879 5878 5878 5878 5878 5878 5878 5878 5878 5879 5880 5881 5881 5882 5883 5884 5885 5885 5886 5886 5886 5887 5888
5915 5915 5914 5914 5912 5911 5912 5910 5908 5906 5904 5902 5900 5898 5896 5894 5892 5891 5889 5888 5886 5885 5884 5883 5882 5882 5881 5880 5880 5879 5879 5879 5879 5879 5879 5880 5880 5881 5882 5883 5884 5884 5885 5885 5886 5886 5886 5887 5887
5916 5916 5915 5915 5914 5913 5913 5911 5910 5908 5906 5905 5902 5900 5898 5897 5895 5893 5892 5891 5889 5888 5887 5885 5884 5884 5883 5882 5882 5881 5881 5881 5880 5880 5880 5881 5881 5882 5883 5883 5884 5885 5885 5885 5886 5886 5886 5887 5887
5916 5916 5916 5916 5915 5914 5914 5913 5912 5910 5908 5907 5905 5903 5901 5899 5897 5896 5895 5893 5892 5890 5889 5887 5886 5886 5885 5884 5883 5883 5883 5882 5882 5882 5882 5882 5882 5883 5883 5884 5884 5885 5885 5885 5885 5886 5886 5886 5886
5916 5916 5916 5916 5915 5915 5915 5914 5913 5911 5910 5908 5907 5905 5903 5901 5899 5898 5897 5895 5894 5892 5891 5889 5888 5887 5887 5886 5885 5885 5884 5884 5884 5883 5883 5883 5883 5883 5884 5884 5884 5885 5885 5885 5885 5885 5885 5885 5885
5915 5916 5916 5916 5915 5915 5915 5914 5914 5912 5911 5909 5908 5906 5904 5903 5901 5899 5898 5897 5895 5894 5892 5891 5890 5889 5888 5888 5887 5886 5886 5885 5885 5884 5884 5884 5884 5884 5884 5885 5884 5884 5884 5885 5884 5885 5884 5884 5884
5914 5915 5915 5915 5915 5915 5915 5915 5914 5913 5912 5911 5909 5908 5906 5905 5903 5901 5899 5898 5897 5896 5894 5894 5893 5891 5890 5889 5889 5888 5887 5887 5886 5886 5885 5885 5885 5885 5885 5885 5884 5884 5884 5884 5884 5884 5884 5884 5883
5913 5913 5914 5914 5914 5914 5915 5914 5914 5913 5912 5911 5910 5909 5907 5906 5904 5903 5901 5899 5898 5897 5896 5895 5894 5893 5892 5891 5890 5890 5889 5889 5888 5887 5887 5886 5886 5885 5885 5885 5884 5884 5884 5884 5883 5883 5883 5883 5882
5911 5912 5912 5913 5913 5913 5913 5914 5914 5912 5912 5912 5910 5909 5908 5907 5905 5904 5902 5900 5899 5898 5898 5897 5896 5895 5894 5893 5892 5892 5891 5890 5889 5889 5888 5888 5887 5886 5886 5885 5885 5884 5883 5883 5883 5883 5882 5882 5881
5908 5910 5910 5911 5911 5912 5912 5912 5913 5912 5912 5911 5911 5909 5908 5908 5906 5905 5903 5901 5900 5899 5899 5898 5898 5897 5896 5895 5894 5893 5893 5892 5891 5890 5889 5889 5888 5887 5887 5886 5885 5884 5883 5883 5882 5881 5881 5880 5879
5905 5907 5908 5908 5909 5910 5911 5910 5912 5911 5911 5911 5910 5909 5908 5908 5907 5906 5904 5903 5901 5901 5900 5900 5899 5898 5897 5896 5895 5894 5894 5893 5892 5891 5890 5890 5889 5888 5887 5887 5885 5884 5883 5882 5881 5880 5880 5879 5878
5902 5904 5906 5906 5907 5908 5908 5908 5910 5910 5910 5909 5909 5908 5908 5907 5907 5906 5905 5904 5902 5902 5901 5900 5899 5899 5897 5896 5896 5895 5894 5894 5893 5892 5891 5890 5890 5889 5888 5887 5885 5884 5883 5882 5880 5879 5878 5878 5877
5898 5900 5902 5903 5903 5904 5905 5906 5908 5908 5908 5908 5908 5907 5907 5907 5906 5905 5905 5904 5903 5902 5901 5900 5900 5899 5898 5897 5896 5895 5895 5894 5893 5892 5892 5891 5890 5889 5888 5887 5885 5884 5882 5881 5879 5878 5877 5876 5875
5895 5897 5899 5899 5900 5901 5902 5903 5905 5906 5906 5905 5906 5906 5905 5905 5905 5904 5904 5903 5902 5902 5901 5900 5899 5898 5898 5896 5896 5895 5894 5894 5892 5892 5891 5891 5890 5889 5888 5886 5885 5883 5882 5880 5878 5877 5876 5874 5873
5890 5893 5894 5896 5897 5898 5899 5903 5903 5903 5903 5903 5903 5903 5904 5904 5903 5903 5902 5902 5902 5901 5900 5900 5899 5898 5896 5895 5895 5895 5894 5893 5892 5892 5891 5890 5889 5888 5887 5885 5884 5882 5880 5879 5877 5875 5874 5872 5870
5885 5888 5890 5892 5893 5894 5896 5901 5899 5900 5900 5900 5901 5901 5901 5901 5901 5901 5901 5901 5900 5900 5899 5898 5897 5897 5896 5895 5894 5894 5893 5892 5892 5891 5890 5889 5888 5887 5885 5884 5882 5881 5879 5877 5875 5873 5871 5869 5867